| Date | Time | Temp. (oF) | Dew Point (oF) | Rel. Hum. (%) | Press. (in.) | Wind Dir. | Wind Speed (mph) | Hourly Rainfall (in.) |
|
|---|---|---|---|---|---|---|---|---|---|
| 1 | 05/17 | 00:00 | 51 | 50 | 97 | 29.69 | N | 4 | 0.00 |
| 2 | 05/16 | 23:00 | 51 | 50 | 100 | 29.67 | NNE | 5 | 0.00 |
| 3 | 05/16 | 22:00 | 51 | 50 | 100 | 29.65 | NW | 8 | 0.04 |
| 4 | 05/16 | 21:00 | 53 | 53 | 100 | 29.63 | NNW | 8 | 0.00 |
| 5 | 05/16 | 20:00 | 53 | 53 | 100 | 29.60 | NNW | 11 | 0.01 |
| 6 | 05/16 | 19:00 | 53 | 53 | 100 | 29.59 | NNE | 5 | 0.00 |
| 7 | 05/16 | 18:00 | 53 | 53 | 100 | 29.57 | NNE | 2 | 0.01 |
| 8 | 05/16 | 17:00 | 55 | 54 | 100 | 29.54 | N | 4 | 0.03 |
| 9 | 05/16 | 16:00 | 55 | 54 | 100 | 29.53 | N | 6 | 0.01 |
| 10 | 05/16 | 15:00 | 56 | 55 | 100 | 29.55 | NNE | 1 | 0.02 |
| 11 | 05/16 | 14:00 | 57 | 57 | 100 | 29.56 | WNW | 5 | 0.01 |
| 12 | 05/16 | 13:00 | 56 | 55 | 100 | 29.57 | ESE | 6 | 0.03 |
| 13 | 05/16 | 12:00 | 55 | 54 | 100 | 29.61 | NNE | 6 | 0.07 |
| 14 | 05/16 | 11:00 | 55 | 54 | 100 | 29.63 | NE | 8 | 0.08 |
| 15 | 05/16 | 10:00 | 55 | 54 | 100 | 29.66 | ENE | 4 | 0.14 |
| 16 | 05/16 | 09:00 | 55 | 54 | 100 | 29.70 | NNE | 10 | 0.20 |
| 17 | 05/16 | 08:00 | 54 | 54 | 100 | 29.71 | N | 4 | 0.12 |
| 18 | 05/16 | 07:00 | 54 | 54 | 100 | 29.73 | NE | 3 | 0.08 |
| 19 | 05/16 | 06:00 | 54 | 54 | 100 | 29.76 | N | 6 | 0.03 |
| 20 | 05/16 | 05:00 | 55 | 54 | 99 | 29.76 | ENE | 7 | 0.07 |
| 21 | 05/16 | 04:00 | 55 | 54 | 97 | 29.80 | E | 1 | 0.10 |
| 22 | 05/16 | 03:00 | 56 | 54 | 93 | 29.83 | NE | 4 | 0.05 |
| 23 | 05/16 | 02:00 | 58 | 54 | 88 | 29.86 | NNE | 4 | 0.03 |
| 24 | 05/16 | 01:00 | 61 | 54 | 79 | 29.87 | ENE | 2 | 0.01 |